Ronneby, Sweden

10:22 AM CET on February 22, 2017 (GMT +0100)
Ronneby Air Base

Weather History for ESDF - November, 2013

Change the Weather History Date:

Wednesday, November 27, 2013

  Actual Average Record
Temperature  
Mean Temperature 36 °F -  
Max Temperature 48 °F - - ()
Min Temperature 25 °F - - ()
Degree Days  
Heating Degree Days 28    
Moisture  
Dew Point 41 °F    
Average Humidity 90    
Maximum Humidity 100    
Minimum Humidity 78    
Precipitation  
Precipitation 0.00 in - - ()
Sea Level Pressure  
Sea Level Pressure 30.05 in    
Wind  
Wind Speed 9 mph ()    
Max Wind Speed 16 mph    
Max Gust Speed 26 mph    
Visibility 6.6 miles    
Events Rain    
T = Trace of Precipitation, MM = Missing Value Source: Averaged Metar Reports

Daily Weather History Graph

Daily Weather History Graph

Search for Another Location

Airport or City:

Trip Planner

Search our weather history database for the weather conditions in past years. The results will help you decide how hot, cold, wet, or windy it might be!

Date:

Astronomy

Nov. 27, 2013 Rise Set
Actual Time 8:00 AM CET 3:32 PM CET
Civil Twilight 7:15 AM CET 4:17 PM CET
Nautical Twilight 6:27 AM CET 5:05 PM CET
Astronomical Twilight 5:42 AM CET 5:50 PM CET
Moon 12:39 AM CET (11/27) 1:00 PM CET (11/27)
Length of Visible Light 9h 02m
Length of Day
7h 31m
Waning Crescent, 34% of the Moon is Illuminated
Nov 27
Waning Crescent
Dec 3
New
Dec 9
First Quarter
Dec 17
Full
Dec 25
Last Quarter

Hourly Weather History & Observations

Time (CET) Temp. Windchill Dew Point Humidity Pressure Visibility Wind Dir Wind Speed Gust Speed Precip Events Conditions
12:00 AM 36 °F - 32 °F 78% 30.30 in 28 mi WSW 8.9 mph - -   Overcast
12:20 AM 37.4 °F 31.4 °F 32.0 °F 81% 30.27 in 6.2 mi WSW 8.1 mph - N/A   Overcast
12:50 AM 37.4 °F 30.8 °F 32.0 °F 81% 30.24 in 6.2 mi WSW 9.2 mph - N/A   Overcast
1:00 AM 37 °F - 33 °F 79% 30.27 in 18 mi WSW 11.2 mph - -   Overcast
1:20 AM 35.6 °F 28.6 °F 33.8 °F 93% 30.24 in - SW 9.2 mph - N/A   Overcast
1:50 AM 37.4 °F 30.8 °F 35.6 °F 93% 30.21 in 6.2 mi WSW 9.2 mph - N/A   Overcast
2:00 AM 37 °F - 36 °F 92% 30.24 in 9 mi WSW 11.2 mph - -   Overcast
2:20 AM 37.4 °F 30.3 °F 35.6 °F 93% 30.21 in 6.2 mi WSW 10.4 mph - N/A   Overcast
2:50 AM 37.4 °F 30.3 °F 35.6 °F 93% 30.21 in 6.2 mi WSW 10.4 mph - N/A   Overcast
3:00 AM 38 °F - 36 °F 92% 30.21 in 7 mi WSW 8.9 mph - -   Overcast
3:20 AM 37.4 °F 31.4 °F 37.4 °F 100% 30.18 in 6.2 mi WSW 8.1 mph - N/A   Overcast
3:50 AM 39.2 °F 33.6 °F 37.4 °F 93% 30.15 in 6.2 mi SW 8.1 mph - N/A   Overcast
4:20 AM 39.2 °F 33.6 °F 37.4 °F 93% 30.15 in 6.2 mi WSW 8.1 mph - N/A   Overcast
4:50 AM 39.2 °F 33.0 °F 39.2 °F 100% 30.15 in 6.2 mi WSW 9.2 mph - N/A   Overcast
5:00 AM 41 °F - 39 °F 91% 30.14 in 9 mi WSW 11.2 mph - - Rain Light Drizzle
5:20 AM 41.0 °F 35.2 °F 39.2 °F 93% 30.12 in 6.2 mi WSW 9.2 mph - N/A   Light Drizzle
5:50 AM 41.0 °F 34.7 °F 39.2 °F 93% 30.12 in 6.2 mi WSW 10.4 mph - N/A   Overcast
6:20 AM 41.0 °F 35.2 °F 39.2 °F 93% 30.12 in 6.2 mi WSW 9.2 mph - N/A   Overcast
6:50 AM 41.0 °F 34.7 °F 39.2 °F 93% 30.09 in 6.2 mi WSW 10.4 mph - N/A   Overcast
7:00 AM 42 °F - 40 °F 88% 30.12 in 12 mi West 11.2 mph - - Rain Light Drizzle
7:20 AM 41.0 °F 34.3 °F 39.2 °F 93% 30.09 in 6.2 mi WSW 11.5 mph - N/A   Overcast
7:50 AM 42.8 °F 37.5 °F 39.2 °F 87% 30.09 in 6.2 mi WSW 9.2 mph - N/A   Overcast
8:00 AM 42 °F - 40 °F 90% 30.12 in 12 mi WSW 8.9 mph - -   Overcast
8:20 AM 42.8 °F 37.5 °F 41.0 °F 93% 30.09 in 6.2 mi WSW 9.2 mph - N/A   Overcast
8:50 AM 42.8 °F 37.5 °F 41.0 °F 93% 30.09 in 6.2 mi WSW 9.2 mph - N/A   Overcast
9:00 AM 43 °F - 40 °F 87% 30.11 in 16 mi West 8.9 mph - -   Overcast
9:20 AM 42.8 °F 37.5 °F 41.0 °F 93% 30.09 in 6.2 mi WSW 9.2 mph - N/A   Overcast
11:00 AM 44 °F - 42 °F 88% 30.09 in 9 mi West 8.9 mph - - Rain Light Drizzle
11:20 AM 44.6 °F 39.7 °F 41.0 °F 87% 30.06 in 6.2 mi WSW 9.2 mph - N/A   Light Drizzle
11:50 AM 44.6 °F 39.2 °F 42.8 °F 93% 30.04 in 6.2 mi WSW 10.4 mph - N/A   Light Drizzle
12:00 PM 44 °F - 42 °F 91% 30.06 in 6 mi WSW 8.9 mph - - Rain Light Drizzle
12:20 PM 44.6 °F 40.2 °F 42.8 °F 93% 30.04 in 3.1 mi WSW 8.1 mph - N/A   Overcast
12:50 PM 44.6 °F 40.2 °F 42.8 °F 93% 30.04 in 1.9 mi WSW 8.1 mph - N/A   Drizzle
1:00 PM 44 °F - 43 °F 94% 30.04 in 2 mi WSW 8.9 mph - -   Overcast
1:20 PM 44.6 °F 40.2 °F 42.8 °F 93% 30.01 in 2.5 mi WSW 8.1 mph - N/A   Drizzle
1:50 PM 44.6 °F 40.2 °F 42.8 °F 93% 30.01 in 3.1 mi WSW 8.1 mph - N/A   Light Drizzle
2:00 PM 45 °F - 44 °F 92% 30.02 in 3 mi WSW 6.7 mph - -   Mist
2:20 PM 44.6 °F 40.7 °F 44.6 °F 100% 30.01 in 6.2 mi WSW 6.9 mph - N/A   Light Drizzle
2:50 PM 46.4 °F 42.4 °F 44.6 °F 93% 29.98 in 6.2 mi West 8.1 mph - N/A   Overcast
3:00 PM 46 °F - 44 °F 92% 30.00 in 7 mi West 8.9 mph - - Rain Light Drizzle
3:20 PM 46.4 °F 41.5 °F 44.6 °F 93% 29.98 in 6.2 mi West 10.4 mph - N/A   Light Drizzle
3:50 PM 46.4 °F 41.5 °F 44.6 °F 93% 29.98 in 6.2 mi West 10.4 mph - N/A   Overcast
4:20 PM 46.4 °F 40.7 °F 44.6 °F 93% 29.98 in 6.2 mi West 12.7 mph - N/A   Overcast
4:50 PM 46.4 °F 41.5 °F 44.6 °F 93% 29.95 in 6.2 mi West 10.4 mph - N/A   Overcast
5:00 PM 46 °F - 44 °F 91% 29.98 in 28 mi West 8.9 mph - -   Overcast
5:20 PM 46.4 °F 41.1 °F 44.6 °F 93% 29.95 in 6.2 mi West 11.5 mph - N/A   Overcast
5:50 PM 46.4 °F 41.1 °F 44.6 °F 93% 29.95 in 6.2 mi West 11.5 mph - N/A   Overcast
6:00 PM 47 °F - 44 °F 86% 29.96 in 28 mi West 15.7 mph - -   Overcast
6:20 PM 46.4 °F 41.1 °F 44.6 °F 93% 29.95 in 6.2 mi West 11.5 mph - N/A   Overcast
6:50 PM 46.4 °F 41.1 °F 44.6 °F 93% 29.95 in 6.2 mi West 11.5 mph - N/A   Overcast
7:00 PM 47 °F - 44 °F 84% 29.96 in 22 mi West 13.4 mph - -   Overcast
7:20 PM 46.4 °F 40.4 °F 44.6 °F 93% 29.95 in 6.2 mi West 13.8 mph - N/A   Overcast
7:50 PM 46.4 °F 40.4 °F 44.6 °F 93% 29.92 in 6.2 mi West 13.8 mph - N/A   Overcast
8:00 PM 47 °F - 44 °F 86% 29.93 in 28 mi West 13.4 mph - -   Overcast
8:20 PM 46.4 °F 40.7 °F 44.6 °F 93% 29.92 in 6.2 mi West 12.7 mph - N/A   Overcast
8:50 PM 48.2 °F - 44.6 °F 87% 29.89 in 6.2 mi West 11.5 mph - N/A   Overcast
9:00 PM 47 °F - 44 °F 86% 29.92 in 28 mi West 11.2 mph - -   Overcast
9:20 PM 48.2 °F - 44.6 °F 87% 29.89 in 6.2 mi West 12.7 mph - N/A   Overcast
9:50 PM 48.2 °F - 44.6 °F 87% 29.89 in 6.2 mi West 12.7 mph - N/A   Overcast
10:20 PM 48.2 °F - 44.6 °F 87% 29.89 in 6.2 mi West 15.0 mph - N/A   Overcast
10:50 PM 48.2 °F - 42.8 °F 82% 29.89 in 6.2 mi WNW 12.7 mph - N/A   Overcast
11:00 PM 48 °F - 44 °F 80% 29.91 in 28 mi WNW 15.7 mph - -   Overcast
11:20 PM 48.2 °F - 42.8 °F 82% 29.89 in 6.2 mi WNW 13.8 mph - N/A   Overcast
11:50 PM 48.2 °F - 42.8 °F 82% 29.89 in 6.2 mi WNW 15.0 mph 26.5 mph N/A   Overcast